Tracking 32139 objects as of 15-Nov-2025
HD Live streaming from Space Station
objects crossing your sky now

KUIPER-00104

Track KUIPER-00104 now!
10-day predictions
KUIPER-00104 is classified as:


NORAD ID: 65142
Int'l Code: 2025-171L
Perigee: 542.3 km
Apogee: 548.7 km
Inclination: 51.9 °
Period: 95.4 minutes
Semi major axis: 6916 km
RCS: Unknown
Launch date: August 11, 2025
Source: United States (US)
Launch site: AIR FORCE EASTERN TEST RANGE (AFETR)
Your satellite tracking list
Your tracking list is empty




NASA's NSSDC Master Catalog

Two Line Element Set (TLE):
1 65142U 25171L   25319.83335647 -.01079289  00000-0 -72320-1 0  9996
2 65142  51.8872 303.0692 0004647 131.6221 321.7875 15.09282128  2127
Source of the keplerian elements: AFSPC